Home > Time Zones > World Clock > Weather > Italy > Rome > Past weeks

Flag for Italy Weather past 2 weeks in Rome, Italy

Now
73 °F

Clear.


Feels Like: 73 °F
Forecast: 67 / 92 °F
Wind: 2 mph from North

Location: Rome / Ciampino

Current Time: Jul 4, 2015 at 2:35:57 AM

Latest Report: Jul 4, 2015 at 1:50 AM


Visibility: 10 mi

Pressure: 30.18 "Hg

Humidity: 83%

Dew point: 68 °F

Location of RomeLocation

Historic Weather in Rome — Graph

°F

Rome temperature yesterday

Maximum temperature yesterday: 93 °F (at 1:20 PM)
Minimum temperature yesterday: 70 °F (at 3:50 AM)
Average temperature yesterday: 80 °F

Past Weeks' High & Low Weather Summary

 TemperatureHumidityPressure
High93 °F (Jul 3, 1:20 PM)94% (Jun 21, 2:15 AM)30.21 "Hg (Jun 21, 2:15 AM)
Low57 °F (Jun 21, 6:15 AM)19% (Jun 27, 2:15 PM)29.80 "Hg (Jun 19, 4:45 PM)
Average75 °F60%30.02 "Hg
* Reported Jun 19 1:15 AM — Jul 4 1:20 AM, Rome, Weather by CustomWeather, © 2015

Note: Actual official high and low records may vary slightly from our data, if they occured in-between our weather recording intervals... More about our weather records

Advertising

Rome weather history for previous 24 hours

 ConditionsComfort  
Time TempWeatherWind HumidityBarometerVisibility
1:20 AM
Sat, Jul 4
73 °FClear.3 mph83%30.18 "Hg10 mi
12:50 AM75 °FPassing clouds.5 mph83%30.18 "HgN/A
12:20 AM75 °FPassing clouds.3 mph83%30.18 "HgN/A
11:50 PM
Fri, Jul 3
75 °FPassing clouds.3 mph83%30.21 "HgN/A
11:20 PM75 °FPassing clouds.1 mph83%30.21 "HgN/A
10:50 PM77 °FPassing clouds.3 mph79%30.21 "HgN/A
10:20 PM77 °FPassing clouds.5 mph79%30.21 "HgN/A
9:50 PM79 °FClear.3 mph74%30.21 "Hg10 mi
9:20 PM79 °FSunny.3 mph74%30.21 "Hg10 mi
8:50 PM79 °FPassing clouds.5 mph74%30.15 "HgN/A
8:20 PM81 °FPassing clouds.6 mph70%30.18 "HgN/A
7:50 PM82 °FSunny.3 mph70%30.18 "Hg10 mi
7:20 PM81 °FScattered clouds.5 mph70%30.21 "HgN/A
6:50 PM79 °FScattered clouds.9 mph74%30.21 "HgN/A
6:20 PM84 °FBroken clouds.1 mph62%30.18 "HgN/A
5:50 PM84 °FRain. Scattered clouds.5 mph62%30.18 "HgN/A
5:20 PM88 °FScattered clouds.9 mph49%30.18 "HgN/A
4:50 PM90 °FThunderstorms. Scattered clouds.9 mph49%30.18 "HgN/A
4:20 PM90 °FThunderstorms. Scattered clouds.8 mph46%30.18 "HgN/A
3:50 PM90 °FPassing clouds.8 mph43%30.18 "HgN/A
3:20 PM90 °FPassing clouds.9 mph43%30.18 "HgN/A
2:50 PM91 °FPassing clouds.8 mph41%30.18 "HgN/A
2:20 PM91 °FPassing clouds.7 mph41%30.18 "HgN/A
1:50 PM91 °FPassing clouds.6 mph44%30.18 "HgN/A
1:20 PM93 °FPassing clouds.7 mph39%30.18 "HgN/A
12:50 PM90 °FSunny.7 mph41%30.21 "Hg10 mi
12:20 PM88 °FSunny.7 mph43%30.21 "Hg10 mi
11:50 AM90 °FSunny.6 mph43%30.21 "Hg10 mi
11:20 AM88 °FSunny.8 mph43%30.21 "Hg10 mi
10:50 AM86 °FSunny.6 mph49%30.21 "Hg10 mi
10:20 AM86 °FSunny.5 mph46%30.21 "Hg10 mi
9:50 AM84 °FSunny.5 mph51%30.21 "Hg10 mi
9:20 AM82 °FSunny.6 mph58%30.21 "Hg10 mi
8:50 AM81 °FSunny.2 mph62%30.21 "Hg10 mi
8:20 AM79 °FSunny.2 mph65%30.21 "Hg10 mi
7:50 AM77 °FSunny.2 mph65%30.21 "Hg10 mi
7:20 AM73 °FSunny.5 mph74%30.18 "Hg10 mi
6:50 AM72 °FSunny.5 mph78%30.18 "Hg10 mi
6:20 AM72 °FClear.6 mph83%30.18 "Hg10 mi
5:50 AM72 °FClear.3 mph78%30.18 "Hg10 mi
5:20 AM72 °FClear.3 mph83%30.18 "Hg10 mi
4:50 AM70 °FClear.3 mph83%30.18 "Hg10 mi
4:20 AM70 °FClear.1 mph83%30.18 "Hg10 mi
3:50 AM70 °FClear.1 mph83%30.18 "Hg10 mi
3:20 AM72 °FClear.5 mph78%30.18 "Hg10 mi
2:50 AM72 °FClear.1 mph78%30.21 "Hg10 mi
2:20 AM72 °FClear.2 mph73%30.21 "Hg10 mi
Weather by CustomWeather, © 2015

See weather overviewHow to use our weather pages